Location: Staunton
(38.1490°N, 79.0720°W)
Time: 20:37:29
(UTC-05:00)

ISS - Pass Details

Date: 27 February 2021
Orbit: 417 x 422 km, 51.6° (Epoch: 25 February)

Event Time Altitude Azimuth Distance (km) Brightness Sun altitude
Exits shadow 05:03:59 14° 0° (N) 1,288 -1.2 -21.7°
Drops below altitude 10° 05:05:01 10° 17° (NNE) 1,496 -0.7 -21.5°
Sets 05:07:45 0° 41° (NE) 2,362 0.8 -21.0°
